Theta_e
323 318 320 329 333 335 335 333 333 332 331 330 330 329 328 330 329 326 328 326 327 327 327 327 327 327 327 327 327 327 326 327 326 326 326 326 327 328 327 328 329 329 329 330 330 330 332 333 337 337 335 333 332 329 330 331 331 331 330 330 330 330 331 332 332 332 331 332 333 334 333 334 335 335 335 336 337 337 335 335 335 333 335 335 339
320 320 321 330 333 335 334 333 333 332 330 330 330 330 329 329 327 328 326 328 325 327 326 327 327 327 327 327 326 326 326 325 326 325 326 326 327 327 327 328 329 329 329 330 329 330 331 335 337 335 334 332 331 329 329 331 330 329 329 330 330 332 332 332 332 331 331 332 331 333 332 333 333 334 335 335 336 336 334 334 336 335 334 336 337
323 319 322 331 333 334 333 333 333 331 330 330 329 329 329 329 328 326 328 325 327 325 327 327 327 326 326 325 325 325 325 325 325 325 325 326 326 326 327 328 329 328 329 329 329 330 331 335 336 333 332 330 329 328 330 330 330 330 330 330 331 331 332 331 330 330 330 330 331 331 330 331 332 332 334 334 335 335 333 333 334 335 334 337 337
322 318 323 329 333 333 332 333 332 331 330 329 329 329 330 329 327 327 326 327 325 326 326 326 325 326 325 325 325 325 325 325 324 324 325 325 325 326 325 328 328 328 328 328 329 330 332 335 334 333 330 330 328 328 329 329 330 330 330 330 331 331 331 331 330 329 329 329 330 329 329 328 328 331 332 333 334 334 332 332 333 333 335 336 337
321 319 324 330 332 332 332 333 331 330 330 330 329 329 330 327 327 327 327 326 326 326 325 325 325 325 324 324 324 324 324 324 324 323 324 324 325 326 326 328 328 328 328 328 328 329 333 334 333 333 329 330 328 328 329 329 330 330 329 330 331 332 331 331 331 330 328 328 328 329 327 327 327 329 331 333 333 333 331 332 332 332 333 334 336
321 319 325 328 331 331 332 332 331 330 330 329 329 330 329 327 326 327 326 325 326 324 326 325 325 324 324 323 324 323 323 323 323 323 324 324 325 325 327 328 327 327 327 328 328 331 332 333 333 333 329 329 330 328 328 329 329 329 329 330 330 331 331 332 332 332 331 329 328 327 326 327 326 328 330 332 333 331 330 330 331 333 334 334 335
320 320 325 327 332 331 332 331 330 330 330 329 329 330 328 327 327 327 325 325 324 326 325 324 323 323 322 323 323 323 323 323 323 323 324 323 324 325 327 327 327 327 327 327 328 331 332 332 332 332 330 327 330 328 328 329 329 329 330 330 331 331 332 332 332 331 331 329 326 326 325 325 325 326 329 330 332 331 330 332 333 334 334 335 335
320 321 325 327 329 331 330 330 330 330 330 329 331 329 328 326 327 325 325 323 325 325 324 322 322 322 322 322 322 322 322 323 323 323 323 323 323 324 325 326 326 326 326 328 328 331 331 331 331 331 330 330 328 329 329 329 329 329 329 330 331 332 332 332 331 331 331 329 328 326 326 325 325 326 328 329 330 332 332 333 333 333 334 333 331
318 319 323 325 329 329 330 329 329 331 330 330 330 329 328 326 325 325 324 324 324 324 323 322 321 322 322 322 321 322 322 322 322 323 323 322 322 323 325 325 325 326 326 328 329 330 330 331 332 331 329 331 332 331 330 330 330 330 330 332 332 332 332 332 331 330 329 328 328 326 326 325 325 326 328 329 330 330 330 330 329 331 332 331 330
317 318 321 324 327 329 329 328 329 331 330 331 330 328 327 327 325 324 322 323 323 323 322 322 321 322 322 321 321 321 322 322 322 322 321 321 321 322 324 325 325 326 326 327 330 329 329 330 330 330 331 331 332 332 331 331 331 331 331 332 332 332 332 332 331 330 329 329 328 328 327 327 325 325 327 329 329 330 329 328 328 328 329 329 329
317 317 321 324 327 328 328 327 328 330 330 331 329 328 327 328 326 323 322 322 323 323 322 321 322 321 321 321 320 321 321 321 320 320 320 320 321 322 324 324 325 326 326 327 328 329 328 329 330 330 330 331 331 331 331 331 330 330 331 331 331 332 331 330 330 329 328 327 327 326 326 327 326 324 327 328 328 328 326 328 329 329 329 330 332
316 317 321 324 326 328 327 327 328 329 330 331 329 328 327 328 326 323 322 321 322 322 320 321 320 321 321 320 320 320 320 320 319 319 318 318 320 322 322 323 324 326 325 327 328 328 328 329 330 330 331 331 331 331 330 330 329 330 331 331 331 331 330 329 328 327 328 326 327 326 325 325 325 325 328 328 329 328 326 327 328 330 332 332 332
317 316 320 324 325 327 325 326 327 328 329 330 328 327 327 327 326 323 321 321 321 320 321 320 321 320 320 320 320 320 320 320 318 318 317 317 319 320 321 322 324 325 326 327 327 327 327 329 330 330 330 331 331 330 330 329 329 330 330 330 330 329 328 328 327 326 326 326 325 326 326 325 325 328 328 328 328 328 328 330 332 332 332 332 332
317 316 319 322 323 325 326 326 326 328 329 329 327 327 327 327 327 324 323 322 321 320 320 321 320 320 320 319 319 319 319 318 317 316 315 316 317 318 320 321 323 325 325 326 326 326 328 329 329 329 330 330 331 331 330 329 329 330 330 330 329 328 327 327 326 325 325 325 325 325 326 324 325 328 329 331 328 327 328 328 332 332 331 332 333
316 318 318 320 321 321 325 326 326 327 328 328 327 327 327 326 327 325 323 322 321 320 320 319 319 319 319 319 319 318 318 317 316 314 314 314 315 316 317 320 322 324 325 325 326 326 327 328 329 330 330 331 331 330 330 330 330 330 329 329 328 327 326 326 325 325 325 325 325 326 325 325 327 328 330 332 330 328 328 328 327 328 331 331 329
318 318 318 319 320 320 323 325 326 327 328 328 327 327 326 326 326 325 323 323 322 320 319 319 319 319 319 318 318 318 317 316 315 314 313 314 314 314 316 319 321 323 324 324 325 326 327 329 329 330 331 330 330 330 329 330 330 329 328 327 327 325 325 324 324 325 324 325 326 326 326 325 328 329 329 329 330 330 328 328 328 330 328 328 330
314 317 316 317 319 317 319 324 324 326 327 327 328 327 326 326 326 325 324 324 322 320 318 318 318 318 318 317 316 316 315 315 316 314 314 314 313 313 315 317 320 321 323 324 325 325 328 329 329 331 330 330 330 329 328 328 327 327 327 326 325 325 324 324 325 324 324 325 325 326 328 328 328 329 329 330 330 330 328 328 329 329 328 330 331
314 314 314 316 317 315 315 322 325 324 324 325 326 326 326 325 326 325 324 323 322 320 318 317 317 316 316 315 315 315 314 315 314 315 314 314 313 313 315 316 318 320 322 323 323 325 328 329 329 330 329 329 328 328 327 327 326 326 325 325 324 324 324 324 326 324 324 325 326 328 331 330 331 331 332 332 331 330 329 329 329 328 328 330 330
311 311 312 314 313 313 312 319 324 323 323 322 322 323 325 325 325 325 324 323 322 319 317 316 316 316 315 315 315 313 313 315 313 315 315 313 313 313 315 316 318 319 321 322 322 325 328 327 328 328 328 327 327 326 325 325 325 325 324 324 323 323 323 325 325 324 324 325 326 329 333 333 334 333 332 332 331 331 330 330 331 329 328 328 329
311 310 310 312 313 312 312 314 320 322 324 323 323 322 323 323 324 324 325 324 323 320 317 317 318 318 317 317 315 313 311 312 311 313 313 314 313 315 314 316 317 319 321 321 322 325 326 327 327 327 327 326 325 325 325 325 324 324 323 322 323 323 324 325 324 323 323 324 327 330 333 335 336 336 333 331 331 331 331 331 329 329 327 328 329
308 310 310 310 312 312 312 312 315 320 322 322 322 322 322 323 323 324 323 323 323 321 318 319 319 319 318 316 314 313 313 312 312 313 312 313 312 313 314 315 316 317 320 319 320 323 325 326 326 326 326 325 325 325 325 324 324 323 322 321 322 323 323 323 323 322 322 323 327 328 334 336 337 339 336 333 332 332 332 333 332 331 329 329 329
309 309 310 310 310 311 312 312 313 318 320 322 323 323 322 321 319 320 321 322 322 320 318 315 317 316 317 315 314 313 312 312 312 313 313 313 314 311 312 314 314 315 317 317 318 321 323 325 325 325 325 325 325 326 326 325 324 322 321 321 323 322 322 323 322 321 321 322 325 326 332 334 336 338 337 334 333 334 333 333 332 332 330 330 332
309 309 310 309 311 311 311 311 312 315 319 321 322 321 320 317 319 321 320 321 320 319 317 316 316 316 316 315 312 313 313 313 312 315 314 310 313 311 311 311 313 313 315 314 314 318 321 323 324 323 324 325 326 326 326 325 325 323 323 323 322 322 322 322 321 320 320 321 324 325 330 334 334 335 335 331 335 333 332 333 332 333 332 332 334
310 310 310 311 310 310 311 311 312 314 317 317 319 318 317 316 316 318 318 318 320 319 318 316 316 316 315 313 312 313 314 312 313 309 311 313 312 310 308 310 311 311 311 316 314 316 317 321 322 322 325 325 326 325 324 324 323 324 322 320 319 319 321 321 320 319 319 321 321 323 328 332 333 333 335 335 336 335 333 332 332 332 333 334 334
311 312 312 312 310 310 310 311 313 314 315 315 317 315 316 314 315 317 318 317 318 317 316 315 315 316 315 313 314 314 314 312 312 311 311 311 311 311 311 312 314 316 313 318 319 323 324 327 327 325 325 325 324 324 324 322 322 321 321 319 318 318 318 319 318 319 319 320 319 319 324 332 333 334 335 335 334 336 335 335 337 337 337 336 336
312 309 310 310 311 310 311 311 312 313 314 314 314 314 315 313 314 314 316 316 318 316 315 314 313 314 314 314 313 313 313 312 311 311 311 311 311 310 310 310 313 315 315 317 318 322 324 325 325 324 324 324 324 324 322 321 320 319 319 318 317 317 317 317 318 318 319 319 318 316 321 328 333 335 335 336 335 334 337 336 333 335 337 337 338
309 308 310 310 311 311 311 311 310 311 313 314 314 314 313 313 314 315 314 314 315 315 313 312 312 314 315 315 312 311 311 311 310 310 310 310 310 310 309 309 312 313 314 315 317 321 323 324 324 324 323 324 324 323 321 320 319 318 318 316 315 315 315 315 314 314 315 316 317 314 318 324 331 333 332 336 333 335 335 335 336 335 334 335 335
309 309 309 310 311 310 311 312 311 311 313 313 313 313 313 314 314 314 314 313 314 313 312 312 313 313 314 312 311 312 311 310 310 309 310 310 310 310 310 309 309 310 313 314 316 321 322 323 324 324 323 323 323 322 320 318 317 316 316 315 314 314 314 312 312 312 313 314 314 313 314 319 325 331 332 333 333 333 332 335 334 334 334 334 334
308 308 309 309 310 311 311 311 311 311 312 312 312 312 313 314 314 313 314 315 313 313 313 313 312 311 313 314 312 311 310 310 309 309 309 310 310 310 310 309 309 310 312 313 315 320 322 323 323 323 322 322 322 320 318 316 316 314 313 313 313 312 312 311 310 310 311 311 312 313 312 314 319 325 331 332 333 331 336 333 333 333 335 336 337
308 308 309 309 310 310 310 310 311 311 311 312 311 312 313 313 314 314 314 315 313 314 314 312 311 312 312 313 313 311 311 309 310 309 309 309 310 310 310 309 309 310 312 313 313 319 321 322 322 323 322 321 320 317 316 315 314 313 312 312 311 311 311 310 308 309 310 310 312 312 311 312 315 320 326 331 332 331 334 335 332 333 333 334 335
307 307 308 309 310 309 309 310 311 312 312 311 311 312 313 313 314 314 315 315 314 315 313 311 311 311 311 314 314 312 311 310 310 309 309 309 310 310 309 309 309 310 311 312 313 319 321 321 322 322 321 320 317 316 314 313 313 312 311 311 310 311 310 310 309 309 308 308 310 310 310 310 312 315 319 324 329 331 331 333 333 333 336 333 333
306 307 308 309 310 309 309 310 311 311 312 311 312 312 313 313 315 314 314 315 316 314 312 311 311 311 313 314 313 312 311 310 311 310 309 309 309 309 310 309 309 310 311 311 312 319 321 321 321 322 321 318 315 314 313 312 311 311 311 310 310 309 309 309 309 308 307 307 308 308 308 308 310 312 314 318 323 329 331 331 331 331 336 336 334
308 308 309 309 309 309 308 310 311 311 311 311 311 312 313 314 314 314 314 315 314 314 312 311 311 312 313 314 313 313 311 310 310 310 309 309 309 309 309 309 309 310 311 311 315 320 321 320 320 320 319 317 315 313 313 311 310 309 309 309 309 309 309 309 309 308 306 306 307 307 307 307 308 310 311 313 316 323 330 332 332 332 335 332 333
309 309 309 308 309 310 310 310 310 310 311 311 311 311 313 313 313 313 313 314 313 313 312 312 311 311 312 313 313 313 311 311 311 310 309 309 309 309 309 309 309 311 310 310 312 318 319 319 320 317 314 315 313 312 311 309 308 308 308 308 308 307 308 308 307 307 307 306 306 306 306 305 305 307 308 311 313 317 324 330 332 332 333 334 332
307 308 308 308 308 309 310 310 310 310 310 310 311 312 313 312 312 312 312 313 313 313 312 312 311 311 311 312 313 312 312 311 311 310 309 309 308 308 308 308 309 310 309 310 312 317 319 319 318 316 314 313 311 310 309 308 307 306 306 307 306 307 307 306 306 306 305 305 304 303 304 304 303 304 305 308 310 313 318 322 330 331 331 332 334
306 307 308 308 307 308 309 308 309 309 310 310 312 312 313 313 312 311 312 314 312 312 312 312 311 311 311 311 313 313 312 312 311 311 308 309 308 308 308 309 310 309 309 310 313 317 319 319 318 317 314 311 310 309 308 306 306 305 305 305 305 305 305 305 304 305 305 305 303 303 303 303 302 302 304 305 307 310 314 317 322 327 330 331 331
305 306 307 308 307 308 307 307 308 308 309 311 312 312 312 312 312 311 313 313 312 312 312 312 311 311 310 310 312 312 312 312 311 311 309 309 308 308 308 310 310 309 308 310 313 317 318 318 316 314 314 310 309 308 307 305 304 303 304 304 303 303 303 303 303 304 305 304 303 303 303 302 302 302 303 304 306 309 311 313 317 321 323 328 331
305 305 307 307 306 307 307 307 308 309 309 310 311 311 311 311 311 311 311 311 312 312 312 311 311 310 310 310 312 312 311 312 312 311 309 309 309 309 308 309 309 309 308 309 313 316 318 317 313 312 311 311 309 307 305 304 304 303 302 302 302 302 302 302 302 302 303 302 302 302 301 302 302 302 302 303 304 306 310 312 314 316 316 319 328
303 304 305 306 307 307 306 307 308 309 309 310 311 311 311 311 311 311 310 311 311 311 311 310 311 310 310 311 313 311 311 312 312 311 310 308 308 309 308 309 309 308 308 309 312 316 316 315 313 309 309 310 308 307 305 304 303 302 301 301 301 301 301 301 302 301 301 301 301 302 303 301 302 301 302 302 303 306 308 310 312 314 316 316 323
302 303 304 306 305 306 306 307 307 308 308 309 310 309 308 307 307 308 308 308 309 309 310 310 311 310 311 312 312 311 312 312 312 311 310 309 308 308 308 309 309 308 307 307 310 314 315 313 310 309 307 306 307 306 305 304 303 302 300 300 300 300 300 300 300 300 300 301 301 301 301 301 301 301 301 301 302 303 305 308 309 311 313 316 318
301 302 303 304 305 305 305 305 307 308 307 307 307 307 306 306 307 307 307 308 308 309 308 309 310 310 312 311 312 311 313 312 312 311 310 309 308 308 309 308 308 308 307 307 311 315 315 313 309 308 307 306 305 306 306 306 303 301 301 300 300 300 300 299 299 298 298 299 300 299 300 300 300 299 299 300 300 300 303 305 307 309 311 315 317
300 301 302 303 304 305 305 306 307 307 307 307 307 307 308 308 307 307 308 308 307 307 307 308 309 311 311 311 312 311 313 312 311 311 310 310 308 308 308 307 307 307 307 309 312 312 312 311 309 307 308 307 305 306 306 307 305 303 300 300 299 300 300 299 298 297 298 298 299 299 299 299 298 298 299 299 299 300 300 301 304 306 309 311 314
302 301 302 304 304 305 305 306 307 307 307 307 308 307 308 310 309 309 309 309 310 309 310 309 309 309 310 311 311 311 312 311 312 311 311 310 309 308 308 308 307 308 307 306 309 312 312 310 309 309 306 307 306 306 305 306 305 305 305 302 300 300 300 299 299 297 297 296 297 297 297 298 297 297 298 298 298 298 298 299 301 303 305 308 310
301 302 302 303 304 304 305 306 307 307 307 307 308 309 309 310 311 311 310 310 308 309 310 309 309 309 308 310 310 311 311 311 312 311 311 310 309 308 308 308 307 308 307 306 307 310 311 310 310 309 308 305 304 303 305 305 305 304 300 302 301 302 298 297 296 296 297 296 295 296 296 296 297 297 298 297 296 296 297 298 299 300 303 305 308
301 302 302 302 303 304 305 306 307 307 307 307 308 309 309 308 308 309 309 307 307 306 306 305 307 307 308 308 308 310 311 311 311 311 310 310 310 309 308 308 308 307 307 307 307 309 311 311 311 309 308 307 304 304 303 305 305 304 305 300 299 299 301 298 297 294 295 296 295 295 295 295 296 296 297 296 296 296 296 298 298 300 300 303 306
300 302 304 304 304 304 305 306 307 307 307 307 308 308 307 306 305 304 303 304 304 304 304 304 305 305 306 308 308 308 309 310 310 310 310 309 309 309 309 308 307 307 307 306 307 309 311 311 310 310 309 310 308 305 303 304 305 305 304 304 304 303 300 299 299 296 294 294 295 295 294 295 295 296 296 296 295 296 295 295 297 299 299 301 303
302 304 304 304 304 305 305 306 306 306 307 307 308 307 307 307 306 306 306 305 305 306 308 308 307 307 308 308 308 308 309 309 310 310 310 309 309 309 309 308 308 307 306 306 306 308 310 311 311 310 310 310 309 306 305 304 304 303 304 305 305 304 305 300 299 298 295 294 295 294 295 294 295 295 294 295 294 294 295 295 296 297 298 299 300
303 302 303 304 303 304 305 305 306 306 307 307 307 307 306 307 307 308 308 307 308 308 308 308 309 308 307 308 308 308 308 309 309 309 309 309 308 308 308 308 308 307 306 305 305 307 309 311 310 310 310 310 309 307 306 306 302 302 303 303 303 303 303 302 305 302 301 296 293 293 294 294 295 294 293 293 293 292 292 293 294 295 297 297 298
300 301 303 304 304 304 304 305 305 306 306 306 306 306 307 307 308 308 308 309 310 310 308 308 308 308 307 308 307 307 307 307 308 308 309 308 307 307 307 307 307 307 306 306 306 306 307 309 309 308 308 308 308 308 308 307 306 304 302 303 303 302 301 301 301 302 301 300 296 294 293 294 295 294 294 293 292 291 291 291 292 292 293 296 297
301 302 303 304 304 304 304 304 304 305 306 306 306 306 307 307 307 308 308 308 308 308 308 306 306 307 306 307 307 307 307 306 307 308 308 308 307 307 307 307 307 307 305 306 306 307 306 308 309 309 309 308 308 307 308 308 308 307 305 304 302 300 300 299 300 299 300 301 299 295 294 295 295 294 293 292 291 291 290 290 292 292 292 294 295
301 301 302 303 304 304 304 303 304 305 306 305 305 306 306 307 307 308 309 309 308 308 305 305 305 305 305 306 306 306 306 306 306 306 307 307 307 307 306 306 307 307 306 306 306 305 305 306 308 309 308 308 308 307 307 308 308 307 306 305 303 303 302 301 300 300 301 299 297 295 293 295 296 294 293 290 290 289 289 289 290 291 291 292 294
Wind_Speed
9 1 9 13 14 14 14 13 12 12 11 11 11 10 10 9 8 7 6 5 5 3 3 2 2 2 1 1 0 1 1 1 1 2 3 3 4 4 5 6 6 8 8 9 10 10 11 12 15 15 16 15 16 15 14 14 14 13 14 15 15 16 16 17 18 18 18 19 20 20 21 21 22 22 22 22 22 21 20 20 19 16 14 14 16
14 4 9 10 14 14 13 13 13 12 11 11 10 10 10 9 8 7 6 6 4 4 3 3 2 2 2 1 1 1 1 1 1 2 3 3 4 5 5 6 7 8 9 9 10 10 12 13 15 15 15 15 16 13 13 14 14 14 15 16 16 17 18 18 18 18 18 18 19 20 21 21 21 22 21 22 21 21 20 19 18 15 12 16 15
8 8 10 10 14 13 13 13 12 12 12 11 10 10 9 9 8 7 7 5 6 4 4 3 2 2 1 1 1 1 1 1 2 2 2 3 4 5 5 6 7 8 8 9 10 11 11 14 15 15 15 15 15 12 14 14 14 15 16 17 17 18 18 19 20 20 19 19 20 21 20 21 21 20 20 20 20 21 20 19 17 17 12 17 16
9 9 10 7 9 14 13 13 12 12 12 11 10 10 10 9 8 8 6 7 5 5 4 3 2 2 1 1 1 1 1 1 2 2 2 3 4 5 5 6 7 8 8 10 9 11 12 14 14 15 15 15 14 12 14 14 15 16 17 17 17 18 19 19 20 20 20 20 21 21 12 13 14 17 17 18 20 20 20 19 19 19 19 17 18
9 9 10 10 11 13 14 13 13 12 12 11 10 10 10 9 8 7 7 6 5 5 4 3 2 1 1 1 1 1 1 2 1 2 2 3 4 4 5 5 6 8 8 9 10 10 12 13 13 15 14 14 14 14 15 15 16 16 17 18 19 19 20 20 20 21 20 21 22 21 14 14 11 13 15 17 18 20 19 19 19 19 20 20 19
9 10 10 10 10 12 14 13 13 13 12 12 11 11 10 9 8 7 7 6 6 4 5 2 3 1 1 1 1 1 1 2 1 2 3 3 4 5 5 6 7 9 9 9 10 11 12 13 13 14 14 14 15 13 14 15 16 16 17 18 19 20 20 22 22 22 21 19 20 14 14 14 13 10 15 16 18 18 18 18 18 19 20 21 20
10 9 10 10 8 12 14 14 13 13 13 12 11 11 10 9 8 7 7 7 5 5 3 4 2 2 1 1 1 1 2 1 1 2 3 3 4 4 5 7 8 9 8 8 10 11 12 13 14 14 15 13 16 15 14 16 16 17 17 17 18 19 19 19 20 21 22 19 12 12 13 15 13 10 14 15 18 19 18 19 20 20 21 21 22
7 7 9 9 9 11 15 14 14 14 13 13 12 11 10 9 8 8 7 6 6 4 4 3 3 2 2 1 1 1 1 1 2 2 3 3 4 4 5 6 7 7 7 9 10 12 13 12 14 14 14 15 14 15 15 15 15 15 17 18 20 20 20 21 22 22 23 15 12 10 11 14 15 12 14 15 17 19 18 20 18 17 17 20 20
8 9 9 9 9 13 14 14 14 14 14 13 13 11 10 10 9 8 7 6 6 5 5 3 3 2 2 1 1 0 1 1 2 3 3 3 4 5 5 5 6 8 8 9 11 12 13 13 14 14 14 16 16 16 15 15 16 17 18 19 20 20 22 22 22 24 16 11 12 11 12 13 14 14 15 17 17 18 19 16 14 15 15 17 17
9 9 9 8 9 10 14 13 13 14 14 14 13 12 11 10 9 8 8 7 6 6 5 4 4 3 2 2 1 1 0 1 2 2 3 3 4 4 5 5 6 8 8 9 11 12 12 13 14 14 15 15 16 16 16 17 17 17 18 19 20 20 21 22 23 20 12 12 13 14 14 13 14 14 17 18 18 18 17 14 10 10 9 11 13
10 9 8 8 10 11 13 13 13 13 14 14 13 13 12 11 10 9 8 7 7 6 6 5 5 3 3 2 2 1 0 0 1 2 3 4 4 4 5 5 6 8 9 9 10 12 12 12 14 14 15 15 16 16 16 17 17 18 18 19 19 20 20 21 23 13 11 14 14 12 15 17 13 14 18 20 18 18 17 15 14 14 15 15 16
10 8 8 7 8 10 12 12 13 13 13 13 13 13 12 12 11 9 9 8 7 7 6 6 5 5 4 3 2 1 0 1 1 2 3 4 4 4 5 5 6 8 8 9 11 11 12 13 14 15 15 16 16 16 16 17 18 18 18 18 18 19 18 19 16 12 13 13 14 13 13 14 14 15 22 21 20 20 18 17 16 16 17 17 17
9 8 7 6 9 10 11 12 12 13 13 13 13 13 12 12 11 10 9 8 8 7 7 7 6 5 5 4 3 1 0 1 1 2 3 3 4 4 5 5 6 8 8 9 10 11 12 13 14 14 14 15 15 16 16 17 17 17 17 18 18 19 20 23 14 13 12 12 12 13 13 11 13 19 20 21 21 20 20 18 18 18 18 18 17
9 8 7 7 7 7 9 11 12 12 13 13 13 12 12 12 12 11 10 9 8 8 7 7 6 6 5 4 3 2 1 1 1 2 3 3 4 4 5 5 5 7 7 9 10 11 12 13 14 14 14 15 16 16 16 16 16 16 17 18 19 20 21 17 16 13 13 12 12 13 12 11 12 19 19 20 22 21 20 20 18 18 19 18 17
9 9 8 7 6 9 7 10 12 12 12 13 12 12 12 12 12 11 10 10 9 8 7 7 6 5 5 4 3 2 2 1 2 1 2 3 3 4 5 5 5 6 8 9 10 11 12 13 14 14 14 15 15 15 15 16 16 16 16 17 19 20 19 13 12 12 12 12 11 12 13 11 16 21 20 21 22 22 20 20 19 20 19 18 19
5 8 7 7 7 7 8 9 10 10 10 11 11 12 12 12 11 11 10 10 9 8 7 6 5 5 4 4 3 3 1 1 1 1 1 2 3 4 5 5 5 6 7 9 9 10 12 13 13 14 14 14 15 15 15 17 17 16 17 17 17 19 19 16 11 11 11 12 12 13 12 9 20 21 21 21 20 21 21 19 20 19 19 18 18
4 6 8 8 7 8 8 8 10 9 9 9 9 11 12 11 11 11 10 9 9 7 6 6 5 4 3 2 2 1 1 1 1 1 1 1 2 4 5 5 5 6 7 8 9 10 11 12 13 13 13 14 15 15 15 16 16 16 17 17 17 18 18 18 10 11 11 13 12 11 10 7 15 22 22 20 19 19 20 19 19 20 19 18 18
5 7 8 8 8 8 8 8 9 10 10 9 8 8 10 11 11 10 10 9 8 7 6 5 4 4 3 3 1 1 2 1 1 1 1 2 3 4 5 5 5 6 7 8 9 10 11 12 13 12 13 14 14 13 14 14 15 16 17 17 17 17 16 15 11 11 12 13 11 11 8 14 21 22 15 22 18 18 18 19 18 18 18 18 18
6 7 8 8 10 8 9 8 9 9 9 8 8 9 9 9 8 8 9 9 8 7 6 5 5 4 4 3 2 2 2 2 1 2 2 2 3 2 4 5 5 5 7 7 8 9 10 11 12 12 13 13 13 12 13 14 15 17 17 17 17 16 14 11 12 12 13 12 12 12 8 20 22 20 10 9 15 14 15 17 17 18 18 17 17
6 7 8 8 8 9 8 8 8 9 8 8 8 8 9 8 7 7 6 7 7 6 6 5 4 4 4 3 2 2 1 1 2 2 2 2 3 4 4 5 5 5 6 7 8 9 9 10 10 11 12 12 12 11 12 13 15 17 17 17 15 14 10 10 13 12 13 13 14 12 18 23 26 21 10 3 9 12 15 14 16 18 17 17 16
5 8 8 8 8 9 10 8 9 10 9 9 7 8 7 6 7 6 6 6 7 6 6 5 5 5 5 4 3 3 1 1 2 1 1 1 3 3 4 5 5 6 6 6 7 7 8 8 9 10 11 12 10 7 10 12 14 16 16 16 14 9 10 11 12 12 14 14 14 14 25 20 24 24 17 6 7 10 11 11 13 16 15 15 16
9 8 9 9 9 9 10 10 8 11 10 7 5 5 5 7 9 8 8 8 7 8 7 7 7 5 5 4 4 3 2 1 1 2 2 1 2 3 3 4 5 5 6 5 6 6 6 6 8 9 10 11 7 7 8 9 11 15 12 11 10 9 10 11 13 12 13 14 13 17 25 22 22 23 23 21 12 10 11 9 10 12 14 14 14
9 9 9 12 9 8 9 11 10 10 10 8 5 6 7 7 8 7 6 7 8 8 7 7 6 5 4 3 4 3 2 2 1 2 3 3 2 2 3 3 3 4 5 4 4 4 4 5 6 8 9 8 7 7 8 8 9 10 10 10 9 9 11 12 12 11 11 13 9 22 25 21 20 20 19 19 11 5 5 6 7 7 10 12 11
11 10 10 9 10 9 11 10 10 10 9 8 6 7 7 7 6 6 6 6 7 6 6 6 5 5 4 4 3 2 2 3 4 3 4 4 3 4 2 4 2 1 5 3 3 2 2 1 4 6 6 6 7 7 6 6 7 9 8 8 8 9 10 11 10 11 11 14 12 27 26 20 21 19 21 23 17 13 6 2 4 9 11 12 12
9 8 7 8 12 11 9 10 9 9 9 7 7 8 7 6 6 5 6 5 5 6 5 6 5 5 4 4 2 2 3 3 2 2 3 1 2 1 2 1 1 0 3 1 1 1 1 3 2 4 6 6 6 7 6 6 6 7 8 8 9 9 9 10 11 11 12 12 14 27 26 24 22 23 21 22 23 22 21 19 16 17 15 12 11
5 7 10 10 12 11 11 9 9 9 9 9 9 8 7 7 6 6 6 5 5 5 5 5 5 5 5 4 3 3 3 3 3 3 2 2 2 1 1 1 1 1 2 1 1 1 1 1 2 4 5 5 6 6 6 6 7 7 7 8 9 9 9 11 10 10 10 10 13 26 26 25 24 22 22 21 21 26 25 23 21 21 22 21 22
8 10 9 9 10 11 11 9 10 10 11 10 8 7 7 7 7 7 6 6 6 6 6 6 6 5 5 4 4 4 4 3 3 3 3 2 2 1 1 1 1 1 1 1 1 1 1 1 2 4 4 5 6 6 5 6 6 7 8 8 9 9 9 10 9 10 9 10 13 25 25 26 25 25 23 22 19 22 25 23 22 24 23 24 27
9 10 9 9 9 13 12 11 11 10 9 9 9 8 7 7 7 6 7 7 7 7 7 7 6 5 5 5 5 4 4 3 3 3 3 3 2 1 1 1 1 1 1 1 1 0 0 1 2 2 3 4 5 5 5 6 6 7 8 9 9 9 9 9 9 10 9 10 10 19 24 25 26 26 26 25 22 18 21 24 25 23 23 23 25
12 11 9 8 9 10 12 13 11 12 10 9 9 8 8 7 7 8 8 8 7 7 7 6 6 6 5 5 5 4 4 3 3 3 2 2 2 2 2 1 1 1 1 1 0 1 0 1 1 2 3 4 4 5 5 6 6 7 7 8 9 9 9 9 10 10 10 9 10 13 22 24 25 26 27 23 21 18 20 21 21 23 24 24 24
13 11 10 10 9 10 12 14 13 11 10 9 9 8 8 8 8 9 8 7 8 7 7 6 6 6 5 5 5 5 4 3 3 3 3 2 2 2 2 2 1 1 1 1 0 1 0 0 1 1 2 3 4 4 4 5 6 7 7 7 8 8 8 8 9 9 9 9 10 11 19 21 24 26 26 27 24 22 22 19 19 22 22 24 24
11 12 11 10 9 10 12 13 13 11 9 10 9 9 9 9 9 8 8 8 7 7 6 7 6 6 6 6 6 5 4 3 3 3 3 3 2 2 2 1 2 1 1 1 0 0 1 0 1 1 2 2 4 4 4 5 5 6 7 8 7 7 8 8 8 9 10 9 9 10 12 19 21 23 25 25 25 21 19 16 20 19 21 22 22
11 14 12 10 9 13 13 13 13 11 11 11 9 9 9 9 8 7 7 7 7 7 7 7 7 6 5 5 6 6 5 4 3 3 3 3 3 2 2 2 1 1 1 1 0 1 1 1 1 2 2 3 4 4 5 5 5 6 6 7 7 7 7 7 8 9 9 9 9 9 10 12 17 20 22 24 25 25 19 19 18 19 18 19 21
9 12 11 10 12 12 12 12 12 11 12 12 10 9 9 8 8 8 7 6 7 7 7 7 7 6 5 6 6 6 5 4 4 4 4 3 3 3 3 2 2 1 0 0 1 3 3 2 2 1 2 3 3 4 5 5 5 5 6 7 6 7 7 7 8 8 9 9 9 9 9 10 11 15 18 21 23 24 22 17 17 16 16 19 20
8 7 10 12 10 7 7 8 11 12 13 11 10 9 9 8 7 7 7 7 7 7 7 7 7 6 6 6 6 6 6 5 5 5 4 3 3 3 3 2 2 2 1 2 3 3 3 3 3 2 2 3 4 5 5 5 5 5 6 6 6 7 7 7 8 8 8 9 9 9 10 10 10 10 10 16 20 22 24 21 17 18 16 17 18
8 8 11 13 12 10 8 7 10 12 12 11 11 10 9 8 8 7 7 7 7 7 7 7 7 6 6 6 7 7 7 6 5 5 5 4 4 3 3 2 2 2 2 2 2 3 3 4 3 2 2 3 4 5 5 5 5 6 6 6 6 6 7 7 7 8 9 8 8 9 9 9 9 9 9 8 12 19 21 22 23 18 16 17 13
12 10 9 9 11 12 10 10 11 12 12 12 11 10 9 8 7 8 6 8 7 7 7 7 7 6 7 6 7 7 7 7 6 5 5 5 4 3 3 2 3 3 2 2 3 4 3 3 2 1 3 4 4 5 5 5 6 6 6 6 6 6 7 7 8 8 8 7 8 8 8 9 9 8 9 8 8 10 19 21 21 23 18 12 15
11 11 10 10 11 12 12 13 13 14 13 12 11 10 9 8 8 7 7 8 7 7 7 6 6 6 7 7 7 7 7 7 7 6 5 5 4 4 3 3 3 3 3 3 3 3 4 3 3 1 1 4 5 6 5 5 6 6 6 7 6 6 7 7 7 7 7 8 8 8 8 9 9 10 9 8 8 8 12 19 19 21 22 13 9
11 11 11 11 12 11 11 12 12 12 11 11 11 10 8 8 7 6 7 7 7 7 6 6 6 7 7 7 7 7 7 7 7 6 5 5 4 4 4 4 4 3 3 3 3 3 3 4 4 3 2 4 5 5 6 5 5 5 6 7 7 6 6 6 6 7 7 8 9 9 8 8 8 9 8 8 9 8 8 12 15 16 20 19 10
8 11 11 10 9 9 9 11 12 12 11 10 9 8 7 6 5 6 6 6 6 6 6 6 7 7 7 7 7 7 7 7 7 7 6 5 5 5 4 5 4 4 3 3 3 4 4 3 4 4 2 2 4 5 6 6 6 6 6 7 7 7 6 6 6 6 7 8 8 7 7 8 8 9 9 9 8 9 10 9 8 7 10 18 20
7 8 10 10 10 9 9 10 11 11 10 9 8 8 7 8 8 6 6 7 6 6 5 6 7 7 7 7 7 8 7 7 7 7 6 6 6 6 6 5 4 4 5 5 5 5 6 6 5 6 6 5 4 5 6 7 7 7 7 7 7 7 8 7 7 7 7 7 7 7 7 7 7 8 9 8 8 9 9 10 9 9 7 12 18
7 8 9 10 11 11 11 12 11 11 10 10 10 10 10 8 7 9 9 8 8 7 6 7 7 7 7 7 7 8 7 8 7 7 7 6 6 6 6 6 5 5 5 5 5 5 5 6 6 5 7 7 4 4 5 5 7 6 6 6 6 7 7 8 9 8 8 7 6 7 7 7 7 8 8 8 8 9 9 9 9 9 9 7 9
7 8 10 11 11 12 12 11 10 11 11 11 10 10 10 10 10 9 8 8 8 8 8 7 7 5 7 7 7 8 8 8 8 8 7 7 7 6 7 7 6 5 5 3 4 5 6 6 6 6 4 6 6 6 5 4 3 3 5 5 5 5 6 8 8 9 8 7 7 7 7 8 8 7 7 7 8 9 9 8 8 8 9 8 7
6 8 9 10 11 11 11 11 10 11 11 11 10 10 9 8 8 7 9 7 5 6 6 6 6 7 7 7 7 7 8 8 8 8 7 7 7 7 7 6 7 5 5 5 5 6 7 7 8 7 6 4 4 4 4 3 1 2 2 4 4 3 4 5 6 8 8 7 6 7 7 7 9 7 6 7 7 8 8 8 8 8 8 8 7
4 6 7 10 8 9 9 10 9 10 10 11 10 9 8 8 5 6 7 6 7 5 3 4 6 6 7 7 7 7 8 8 8 8 6 7 7 7 7 6 7 6 6 6 7 8 7 8 8 7 7 6 6 6 3 2 2 4 4 2 1 2 4 3 3 5 5 7 8 7 7 6 7 7 6 7 7 7 7 7 8 8 8 8 7
6 6 7 8 6 10 9 10 8 10 9 10 11 9 8 7 5 6 5 5 5 5 5 6 7 8 7 8 8 8 8 8 8 8 8 8 7 7 7 7 7 7 6 7 7 8 9 9 9 8 9 7 7 6 5 4 4 2 3 3 3 4 1 5 5 4 4 4 7 7 6 7 6 6 6 6 5 6 6 7 7 7 8 8 8
6 6 6 7 7 8 9 9 8 8 9 10 12 10 10 10 10 9 9 9 8 9 11 12 10 10 10 7 7 8 9 8 8 8 8 7 8 8 7 7 7 7 7 7 7 7 9 9 9 8 9 8 7 7 6 5 4 4 3 3 4 3 2 4 4 2 3 4 3 5 6 6 5 5 5 5 6 6 6 6 7 7 7 7 6
5 4 5 6 7 7 8 9 8 8 8 10 12 10 10 10 13 12 11 12 11 9 7 7 8 7 7 9 8 8 8 9 8 8 8 8 7 8 8 8 8 8 7 7 7 8 8 9 8 8 9 8 6 8 9 7 5 5 3 2 2 2 1 5 2 5 4 3 2 2 4 4 5 5 5 6 6 5 5 5 6 6 6 6 6
2 3 4 5 7 8 8 9 7 8 8 9 12 12 11 11 12 11 10 10 11 10 10 8 7 7 8 9 8 8 8 8 9 8 8 8 8 8 8 8 8 8 8 8 8 8 7 7 8 9 7 7 9 9 8 7 8 6 6 3 2 1 1 3 2 2 1 4 4 2 1 2 3 4 4 4 5 5 5 5 5 6 5 6 5
3 4 5 5 6 7 8 9 9 9 9 12 11 13 11 11 12 10 10 9 8 5 6 6 7 7 8 7 8 8 8 8 8 9 8 9 8 8 9 9 8 8 8 8 8 8 10 10 9 8 9 8 8 8 8 7 8 6 7 4 3 3 2 2 0 1 1 2 4 5 4 1 1 2 2 3 3 4 4 4 4 5 4 4 5
3 4 4 5 6 6 8 10 10 9 9 12 12 13 12 10 11 11 12 10 8 5 6 7 7 7 9 9 8 7 8 8 8 8 8 9 9 9 8 10 9 9 8 9 9 8 8 9 10 10 10 9 7 7 8 7 7 6 7 5 6 5 3 3 2 2 0 2 2 6 6 7 6 3 1 2 3 3 3 3 3 4 3 3 4
1 3 4 5 6 7 9 10 10 8 9 12 13 14 13 11 11 11 12 11 10 8 8 8 7 8 9 9 9 8 8 8 8 8 9 9 9 9 9 9 9 9 8 9 9 9 9 9 8 9 9 10 8 8 7 6 5 6 6 6 7 7 7 7 7 6 5 4 3 4 5 5 3 6 3 1 2 2 2 2 2 3 3 3 4
Wind_Direction
213 156 158 167 178 174 173 172 171 173 174 175 176 176 173 176 184 182 185 191 178 191 196 200 201 215 255 254 258 313 300 314 328 331 335 341 336 351 343 333 334 323 336 337 331 330 326 334 340 335 336 334 332 334 324 325 323 321 318 314 313 313 313 310 309 306 302 299 294 290 286 284 282 281 279 277 274 271 272 270 265 262 260 254 251
165 169 164 166 176 173 172 171 170 173 174 175 178 176 179 179 182 184 190 182 188 185 193 187 216 207 247 216 277 267 304 314 335 342 340 347 353 352 347 341 333 328 342 332 327 330 328 338 337 337 336 336 328 330 320 320 320 319 316 315 315 318 315 312 309 305 302 299 295 291 286 281 277 275 274 274 272 270 268 267 269 268 258 256 252
142 158 164 167 173 173 172 171 171 173 174 177 178 180 182 178 181 186 185 185 183 186 175 197 197 249 217 262 262 295 311 326 341 349 351 1 1 357 350 342 334 333 347 326 335 328 331 339 337 339 339 333 326 331 319 321 317 318 319 316 317 317 316 313 310 306 304 300 297 293 288 279 272 269 266 267 269 268 265 265 263 259 260 261 255
146 159 165 164 192 172 170 172 174 173 174 177 180 182 182 182 185 186 184 181 186 174 183 187 207 223 241 252 291 305 326 341 349 2 360 14 11 359 353 348 341 337 341 329 337 329 337 335 339 337 335 332 331 330 321 320 321 323 321 318 317 315 314 311 309 308 304 301 299 297 286 278 271 263 262 263 262 265 266 263 261 259 258 259 254
152 158 163 164 176 172 172 173 175 175 175 177 181 183 183 185 187 185 180 181 176 179 188 173 205 200 250 262 290 311 325 351 9 354 26 17 10 4 353 346 340 331 348 332 336 337 338 337 340 337 337 331 335 332 326 326 327 322 320 320 318 315 312 310 309 309 306 303 300 297 287 277 273 269 261 259 261 262 265 265 262 258 256 255 251
157 161 165 166 172 170 173 176 175 176 177 177 180 183 185 188 188 181 181 179 179 191 175 187 169 215 235 281 286 308 345 358 7 25 17 14 11 5 353 335 339 338 347 337 336 341 339 339 339 335 336 332 332 335 327 327 324 322 322 323 320 314 311 313 313 312 309 302 296 288 284 280 278 271 261 257 259 260 261 262 260 258 252 248 247
160 164 169 169 166 168 175 175 175 177 177 177 180 181 189 190 185 180 183 180 185 175 181 168 180 187 245 260 290 319 342 11 19 9 18 10 6 6 357 349 352 351 340 336 335 341 342 337 335 334 333 341 328 335 334 329 326 327 323 316 310 307 308 308 309 307 306 303 291 290 289 289 285 278 266 260 260 259 258 259 255 253 251 247 244
164 168 172 171 171 162 175 176 176 177 178 178 178 183 189 190 184 181 183 183 175 175 174 177 173 189 224 241 262 319 21 360 354 9 12 3 358 5 360 354 354 338 325 327 338 346 340 335 335 336 334 335 335 335 335 330 323 318 315 313 312 313 316 317 316 313 309 297 287 275 276 286 286 282 272 260 258 260 257 255 263 266 273 267 256
167 174 174 174 171 167 174 177 178 179 178 178 177 183 189 190 183 182 182 178 172 179 179 178 176 200 198 232 272 83 337 345 348 3 11 357 352 354 360 356 341 330 330 339 348 344 342 336 336 335 335 335 335 337 334 326 324 324 321 318 318 320 322 320 319 317 309 308 296 276 273 274 278 278 275 270 261 260 260 263 268 265 261 258 253
169 175 181 177 175 168 176 179 181 181 181 178 178 184 189 188 184 183 182 176 179 179 189 185 186 186 217 217 210 170 203 334 354 9 10 355 349 352 355 351 341 328 338 348 351 345 343 338 335 335 336 333 334 333 330 330 328 322 317 320 319 322 325 324 321 314 309 311 305 287 274 271 273 274 272 268 265 262 260 255 251 257 258 249 253
170 176 181 181 174 172 178 181 184 184 184 180 182 184 187 185 185 187 185 181 179 186 192 194 184 200 204 215 192 177 290 344 18 28 3 359 350 352 349 349 342 328 349 350 347 348 344 339 336 336 334 333 332 331 332 330 324 320 324 325 325 325 327 326 324 311 311 308 300 289 278 273 269 268 269 268 268 264 258 248 235 231 238 242 247
173 175 182 184 162 177 182 185 188 188 188 184 185 186 186 185 185 188 186 184 183 190 193 194 195 191 209 188 193 209 191 13 69 29 3 358 355 347 350 348 340 334 351 352 349 347 343 342 340 338 335 334 334 334 331 329 325 328 329 327 327 326 326 325 323 315 310 304 298 293 283 276 266 265 266 265 263 265 260 245 236 230 236 237 237
174 178 181 178 174 182 187 190 193 192 190 189 189 189 188 186 187 190 190 188 190 191 197 197 195 198 185 190 191 187 131 79 55 25 5 360 356 348 343 348 341 337 351 351 352 345 348 344 341 341 337 334 334 332 333 331 329 332 332 327 326 328 328 325 317 312 304 302 297 296 297 288 271 263 263 261 258 257 257 247 236 236 237 238 235
174 180 180 179 183 179 195 197 197 197 194 194 194 192 192 192 188 192 196 196 194 197 199 200 201 193 188 187 183 175 156 126 57 28 1 3 355 347 342 346 344 339 346 351 351 348 351 342 344 344 339 335 340 342 337 333 335 338 332 328 329 329 332 323 319 311 305 303 299 291 288 280 276 268 264 262 260 252 249 249 240 238 235 234 229
175 180 179 182 183 185 203 208 204 202 200 198 197 197 197 197 193 194 198 200 200 198 202 205 203 195 188 176 175 170 152 136 95 52 24 4 356 345 344 343 346 344 346 349 349 356 350 347 350 345 342 345 346 344 342 341 344 341 333 333 334 333 330 326 322 314 310 306 299 294 284 279 274 271 260 255 254 251 245 243 242 237 232 231 230
177 180 177 186 185 189 195 207 216 211 208 203 201 201 203 202 199 198 202 204 204 203 203 208 206 197 183 178 173 158 160 126 118 107 51 10 1 345 343 343 348 347 346 350 352 351 353 350 349 346 346 347 346 346 344 347 349 341 334 338 340 333 330 331 321 318 318 316 316 310 292 273 267 267 265 255 253 251 245 238 240 237 232 227 231
177 179 186 193 191 195 198 199 203 213 218 212 208 208 208 207 206 205 205 208 208 205 206 207 205 194 181 171 152 141 103 82 112 125 58 26 12 352 345 345 351 351 348 352 353 351 354 353 346 350 347 347 351 352 350 350 347 341 341 341 340 333 330 330 331 328 325 325 321 316 303 282 288 276 264 266 248 249 245 240 239 238 234 229 226
190 192 199 197 195 200 201 201 200 206 207 209 214 214 212 212 210 210 210 211 209 209 208 203 199 188 164 147 114 85 51 46 105 55 32 34 17 5 350 345 355 351 352 357 354 352 358 354 348 350 350 351 354 354 355 353 350 346 347 343 340 334 329 325 347 339 333 329 329 326 324 333 324 327 291 235 245 237 239 240 238 236 236 234 231
192 202 205 201 201 200 202 203 204 203 207 206 207 205 212 214 215 213 213 211 210 206 201 200 197 176 154 130 128 68 40 24 14 355 10 16 21 344 357 341 356 356 357 360 353 359 3 358 352 351 353 1 2 3 359 358 356 352 351 346 341 340 331 341 353 348 341 343 342 344 331 333 331 336 352 218 234 238 236 237 237 239 232 231 232
205 204 206 208 204 200 202 204 205 206 205 206 208 206 197 210 214 212 205 206 202 194 190 191 178 163 137 149 132 194 177 168 354 259 24 348 23 355 348 341 360 359 0 1 355 5 10 0 356 352 4 10 9 8 1 353 358 354 349 343 343 338 347 355 352 354 353 346 353 355 347 347 345 359 12 240 228 228 229 232 231 232 228 227 226
203 210 210 203 204 204 204 205 206 206 205 207 210 208 201 191 206 207 203 192 188 174 174 166 166 159 170 157 182 234 215 230 216 303 258 9 360 349 338 351 4 2 1 359 359 13 15 6 357 1 13 15 6 3 1 352 357 353 348 343 341 353 353 355 356 355 356 355 357 359 356 4 1 9 22 333 261 240 234 225 233 232 229 221 221
201 206 209 206 199 205 206 207 204 206 205 200 201 201 205 204 218 210 208 197 188 177 184 206 192 194 164 175 229 220 238 217 234 262 271 249 149 356 339 343 8 7 358 351 11 16 22 12 1 12 15 13 345 8 4 357 1 360 346 339 353 358 356 1 4 358 355 359 356 352 359 11 8 5 4 9 324 266 237 218 230 230 224 219 214
205 205 205 202 201 198 201 205 209 203 202 201 199 206 208 211 213 211 204 205 201 196 209 199 207 202 193 214 226 230 238 260 293 14 323 360 346 344 317 337 6 4 351 326 18 20 28 23 8 14 20 356 14 12 7 6 6 1 3 6 1 360 359 5 9 1 353 350 350 351 3 10 11 359 351 5 348 223 217 214 205 223 222 215 212
208 202 203 191 192 199 199 204 203 199 195 204 202 207 207 208 209 203 208 204 203 199 208 208 205 203 201 222 229 209 223 253 116 194 240 225 162 202 259 256 231 245 335 276 185 69 276 69 10 353 14 23 18 17 2 3 8 10 6 357 356 357 4 8 11 5 355 356 353 353 6 17 10 5 4 20 44 78 105 106 215 214 222 219 221
206 203 200 189 193 197 195 200 197 196 196 202 199 206 200 202 203 203 204 204 200 200 208 204 208 204 204 222 217 199 225 238 235 231 253 253 269 266 237 274 331 330 314 306 323 52 319 14 348 8 24 24 22 19 2 4 11 4 3 360 0 1 7 11 12 9 2 1 2 357 360 18 20 20 26 30 46 72 80 76 88 102 118 133 155
188 209 209 201 197 196 195 193 190 194 195 204 202 199 193 202 200 200 200 205 202 204 209 206 205 205 208 210 199 206 217 223 219 232 237 250 248 260 274 282 296 258 271 292 16 17 360 26 3 13 22 28 29 23 13 11 13 8 6 4 0 5 10 20 16 13 7 359 4 359 1 10 20 21 24 31 40 59 67 77 81 83 82 103 116
214 219 208 206 196 192 193 190 192 194 198 201 198 193 195 202 202 196 199 204 200 206 208 211 209 197 199 197 216 211 214 219 211 223 229 240 238 243 264 272 277 282 295 291 25 30 342 26 14 18 23 29 31 27 20 17 19 12 11 7 5 7 13 16 9 2 357 354 1 1 1 8 12 26 27 31 38 57 65 74 84 91 97 94 98
221 216 208 202 190 193 189 189 196 193 193 193 195 195 195 194 197 185 200 204 198 204 211 209 203 202 201 208 212 218 211 216 216 219 223 227 228 263 258 249 268 275 281 292 278 150 141 55 14 28 26 29 35 28 26 17 26 19 16 12 11 10 17 17 9 4 3 2 358 2 360 6 12 17 22 30 39 51 70 69 79 74 75 93 101
231 220 213 204 198 194 185 194 197 196 194 184 192 197 193 190 190 196 201 193 202 205 207 200 205 208 195 199 203 211 212 215 213 216 218 219 216 226 234 250 260 272 266 234 274 214 169 87 345 35 34 25 36 39 33 27 29 28 18 17 15 13 17 18 11 8 7 360 358 1 359 4 11 15 20 30 37 46 56 74 86 87 83 77 85
228 221 210 210 199 189 191 198 198 195 193 182 192 192 191 189 192 197 198 185 202 205 194 202 206 203 198 193 194 213 207 211 200 202 212 207 212 216 232 233 260 264 260 254 161 267 145 138 42 68 49 39 46 42 37 37 35 35 26 22 18 17 17 17 11 12 7 5 3 2 0 4 10 13 14 19 31 39 46 49 68 87 91 89 88
221 220 215 211 189 182 197 201 200 194 188 188 191 193 189 195 194 192 193 193 193 188 196 203 205 205 202 177 187 203 204 208 201 197 205 204 210 216 230 223 236 230 255 273 83 305 113 8 24 6 29 56 51 47 42 44 39 39 33 29 20 19 19 14 18 16 14 8 3 2 359 1 7 12 13 13 17 39 56 55 63 66 82 91 93
216 220 214 204 183 190 197 198 196 192 192 193 188 190 190 195 191 191 194 192 183 190 196 200 202 203 191 171 191 190 197 193 196 191 211 203 212 219 223 229 215 210 227 287 191 117 159 104 92 52 73 75 65 56 47 48 42 42 36 31 28 24 19 18 21 19 17 13 5 6 4 1 3 6 10 11 13 18 36 52 56 65 78 86 92
223 223 213 197 194 193 195 196 192 191 195 195 191 193 192 189 188 192 190 177 186 191 196 198 200 197 180 181 189 184 189 194 187 192 201 207 208 211 219 215 206 197 181 105 176 156 157 143 132 169 98 88 77 75 65 52 44 42 42 33 28 27 25 23 24 21 18 17 12 7 12 6 7 6 5 8 10 9 18 53 55 72 79 86 94
224 211 206 207 197 181 184 185 188 193 197 197 194 193 191 188 191 189 185 178 192 191 195 198 197 194 185 179 185 184 191 190 186 183 197 202 197 210 216 198 189 185 201 193 194 189 170 164 155 139 94 84 76 63 62 55 45 40 45 36 33 25 24 28 28 22 19 21 17 16 14 10 9 8 353 8 13 12 11 24 56 65 64 77 95
223 217 207 211 197 191 180 187 185 193 193 198 195 194 185 186 185 185 182 181 185 191 194 195 193 193 185 182 187 186 190 187 188 185 192 200 196 199 209 189 173 201 199 206 216 177 180 172 179 142 107 93 80 74 70 63 50 43 39 41 37 25 26 28 27 27 23 22 18 18 17 15 10 6 360 2 1 12 15 15 30 39 71 84 83
219 222 215 200 204 195 184 193 186 193 194 198 196 195 185 186 186 182 179 176 184 191 190 190 191 191 187 187 185 187 189 187 185 191 189 195 199 194 195 163 171 195 199 186 215 185 172 179 152 175 133 94 92 86 78 72 59 46 43 43 41 33 30 25 22 27 25 24 21 18 20 18 14 3 6 4 0 8 16 24 25 27 26 59 86
223 220 212 193 200 194 186 192 190 194 196 196 195 193 188 186 184 177 179 173 187 188 188 185 187 185 190 194 183 189 189 185 187 189 197 191 197 194 175 170 182 189 184 192 208 186 168 177 139 85 103 116 101 97 92 85 70 56 48 49 45 44 37 29 22 23 25 29 23 20 21 16 8 11 9 2 1 0 4 18 28 34 32 31 70
225 220 215 200 198 191 187 190 190 192 194 192 192 189 190 182 181 178 178 180 187 188 184 179 185 189 190 195 180 190 190 186 187 186 199 192 192 189 172 175 184 182 184 199 196 181 172 178 139 118 117 133 120 111 101 90 79 68 56 49 48 48 44 36 30 25 29 25 25 25 15 15 15 11 7 5 3 1 3 10 18 27 27 22 54
224 216 212 205 193 185 182 188 191 186 187 186 184 184 176 173 170 170 170 185 186 189 178 180 187 189 191 190 178 191 189 186 186 184 196 188 191 185 181 177 188 184 178 194 181 182 172 156 146 129 94 89 117 113 111 105 97 83 67 57 54 50 53 44 36 33 32 27 25 18 22 21 18 14 8 7 6 6 10 10 12 10 18 24 36
219 212 206 199 197 186 184 187 192 186 182 179 175 181 178 183 180 175 183 192 186 180 181 189 187 192 186 182 182 193 186 186 185 185 195 191 192 187 184 175 192 188 184 188 188 184 173 150 140 136 124 108 113 123 129 118 103 91 82 71 59 57 52 51 47 40 33 28 25 23 26 19 20 15 12 8 6 4 8 9 11 11 6 21 33
213 207 204 202 197 192 182 191 186 180 179 178 181 180 179 180 186 190 191 179 181 176 181 192 191 193 177 185 182 193 184 183 185 185 195 193 197 186 184 181 192 194 194 194 192 179 170 163 143 146 143 138 138 151 149 142 122 100 93 84 77 63 58 53 48 43 36 29 24 27 24 24 17 19 8 9 8 7 8 9 8 10 10 9 20
206 204 204 200 195 192 192 190 180 182 187 185 179 184 188 185 178 184 181 170 172 180 188 190 190 177 176 187 189 189 184 187 186 191 193 193 195 189 190 186 190 198 197 178 174 167 166 160 156 149 167 158 156 173 170 210 182 143 144 124 99 85 71 60 51 42 38 32 30 29 26 29 21 11 8 10 12 13 10 7 5 9 10 8 11
210 200 204 199 195 194 197 191 185 181 186 184 181 188 188 184 178 167 175 159 173 181 186 178 173 181 185 190 191 188 185 191 189 190 192 195 198 194 192 187 191 190 179 182 179 182 183 175 177 172 162 174 161 180 181 278 198 150 127 162 151 156 135 98 72 47 38 33 32 33 27 30 22 15 10 17 16 12 9 4 2 4 8 7 3
213 202 200 200 195 199 196 194 185 181 183 187 187 185 180 165 147 139 161 152 174 158 135 137 173 180 188 188 196 190 189 193 189 190 192 195 199 199 192 191 189 190 191 182 185 189 186 187 189 186 175 166 181 189 222 255 256 176 184 264 114 255 164 119 78 53 41 42 33 36 28 26 22 19 23 25 16 8 6 4 5 5 5 0 359
210 208 197 196 194 198 193 192 186 185 185 182 181 171 145 138 117 107 113 100 95 153 175 193 191 191 192 190 196 188 190 194 188 192 195 195 197 201 199 191 191 190 199 192 188 194 190 194 193 189 192 187 181 189 194 223 244 319 305 171 175 215 56 114 135 77 28 45 36 34 31 26 23 23 29 28 13 15 3 9 6 7 4 1 6
220 212 202 200 194 193 192 187 187 184 185 181 180 175 171 169 161 162 171 181 184 179 195 196 182 188 197 180 179 190 191 194 191 192 195 193 194 198 199 193 192 190 200 201 196 190 194 194 198 200 198 206 192 183 191 198 224 222 296 331 347 357 115 144 224 133 83 71 47 46 38 30 24 27 31 25 20 17 12 4 2 10 5 1 3
230 202 196 200 199 194 188 186 186 183 182 177 177 176 177 183 181 181 180 184 190 198 196 186 180 183 180 178 186 185 193 194 193 193 193 195 193 194 197 201 196 194 195 202 199 198 195 198 193 206 207 201 198 201 197 188 188 220 222 316 345 339 10 155 182 125 158 126 72 43 52 31 29 27 28 28 18 17 11 6 3 3 11 0 359
234 200 199 197 195 194 185 186 188 184 175 174 179 186 186 186 187 188 186 188 193 193 182 178 172 170 178 181 183 186 189 197 195 192 193 190 193 191 195 198 198 197 191 203 205 201 197 196 199 205 211 211 205 214 204 190 194 194 183 195 156 68 69 6 358 305 31 150 150 112 74 44 43 41 30 22 19 16 3 4 3 1 7 4 5
243 211 202 191 190 191 188 187 191 186 181 181 183 191 195 191 190 189 193 200 195 181 154 161 171 171 183 182 188 187 189 196 200 194 191 192 191 193 191 198 199 197 193 204 207 201 201 196 195 201 209 212 213 221 221 206 206 201 159 173 167 149 139 30 350 317 258 201 142 168 154 128 137 66 38 29 22 14 2 355 355 349 354 2 4
230 216 196 183 184 183 189 190 193 190 182 183 187 192 197 192 195 196 194 192 189 165 161 171 179 174 191 189 189 191 191 193 199 198 193 195 193 193 192 198 200 198 196 203 201 196 201 204 202 204 206 213 216 219 227 226 208 212 186 168 178 155 164 181 200 188 141 321 253 178 169 169 179 148 55 26 12 11 4 348 350 360 354 1 2
205 206 194 193 187 188 191 195 196 190 183 184 188 194 197 198 201 197 194 190 182 172 176 177 180 178 195 195 193 197 193 195 192 199 199 195 194 194 194 197 201 201 199 200 201 201 203 206 205 206 208 210 213 215 221 231 222 211 195 198 199 190 195 194 189 192 205 183 167 153 161 186 193 165 173 360 339 2 345 341 344 354 352 353 357